Location: Anglesey
(53.1800°N, 4.2200°W)
Time: 08:56:07
(UTC+01:00)

N. Korean satellite - Pass Details

Date: 14 October 2017
Orbit: 459 x 517 km, 97.2° (Epoch: 16 October)

Event Time Altitude Azimuth Distance (km) Brightness Sun altitude
Rises 19:42:32 0° 186° (S) 2,539 10.3 -12.7°
Reaches altitude 10° 19:44:44 10° 196° (SSW) 1,654 9.4 -13.0°
Maximum altitude 19:47:59 34° 263° (W) 807 8.4 -13.5°
Drops below altitude 10° 19:51:14 10° 330° (NNW) 1,642 9.7 -14.0°
Sets 19:53:25 0° 340° (NNW) 2,517 10.5 -14.3°
